Location: Aucun
(42.9667°N, 0.1667°W)
Time: 08:18:07
(UTC+00:00)

SMAP - Pass Details

Date: 17 February 2020
Orbit: 681 x 683 km, 98.1° (Epoch: 31 March)

Event Time Altitude Azimuth Distance (km) Brightness Sun altitude
Rises 05:55:33 0° 19° (NNE) 3,055 6.6 -11.7°
Reaches altitude 10° 05:57:54 10° 25° (NNE) 2,135 5.9 -11.3°
Maximum altitude 06:02:23 46° 99° (E) 912 4.3 -10.5°
Drops below altitude 10° 06:06:51 10° 173° (S) 2,118 5.8 -9.7°
Sets 06:09:09 0° 179° (S) 3,028 6.5 -9.3°
